EW7594 Weather Reports


time (UTC)temp
C
wind
direction
speed
KPH
gust
KPH
rain 1hr
cm
rain 24hr
cm
rain mn
cm
humidity
%
barometer
mb
20190421184709 8 0 0.0 1.6 0.00 0.08 0.00 90 1025.6
20190421183809 8 0 0.0 0.0 0.00 0.08 0.00 90 1025.3
20190421182909 8 0 0.0 0.0 0.00 0.08 0.00 90 1025.2
20190421182009 8 0 0.0 0.0 0.00 0.08 0.00 90 1025.1
20190421181109 8 0 0.0 0.0 0.00 0.08 0.00 89 1025.1
20190421180209 8 0 0.0 0.0 0.00 0.08 0.00 89 1025.0
20190421175309 8 0 0.0 1.6 0.00 0.08 0.00 90 1025.1
20190421174409 8 0 0.0 1.6 0.00 0.08 0.00 90 1025.1
20190421173509 8 0 0.0 1.6 0.00 0.08 0.00 90 1025.1
20190421172609 8 0 0.0 1.6 0.00 0.08 0.00 90 1025.2
20190421171709 8 0 0.0 1.6 0.00 0.08 0.00 90 1025.1
20190421170809 8 0 0.0 1.6 0.00 0.08 0.00 90 1025.2
20190421165909 8 0 0.0 0.0 0.00 0.08 0.00 90 1025.2
20190421165009 8 0 0.0 1.6 0.00 0.08 0.00 90 1025.3
20190421164109 8 0 0.0 1.6 0.00 0.08 0.00 90 1025.3
20190421163211 8 0 0.0 1.6 0.00 0.08 0.00 89 1025.1
20190421162309 8 0 0.0 1.6 0.00 0.08 0.00 89 1025.3
20190421161409 8 0 0.0 1.6 0.00 0.08 0.00 89 1025.3
20190421160509 8 0 0.0 1.6 0.00 0.08 0.00 89 1025.2
20190421155609 7 0 0.0 1.6 0.00 0.08 0.00 89 1025.1
20190421154709 8 0 0.0 1.6 0.00 0.08 0.00 89 1025.2
20190421153809 7 0 0.0 1.6 0.00 0.08 0.00 89 1025.2
20190421152909 8 0 0.0 1.6 0.00 0.08 0.00 89 1025.2
20190421152009 8 0 0.0 0.0 0.00 0.08 0.00 88 1025.2
20190421151109 8 0 0.0 1.6 0.00 0.08 0.00 88 1025.2
20190421145306 8 0 0.0 3.2 0.00 0.08 0.00 89 1025.0
20190421144406 8 0 0.0 1.6 0.00 0.08 0.00 88 1024.9
20190421143506 8 0 0.0 1.6 0.00 0.08 0.00 88 1024.9
20190421142606 8 0 0.0 1.6 0.00 0.08 0.08 88 1025.0
20190421141706 8 0 0.0 0.0 0.00 0.08 0.08 87 1025.0
20190421140806 8 0 0.0 1.6 0.00 0.08 0.08 86 1025.1
20190421135906 8 0 0.0 4.8 0.00 0.08 0.08 87 1024.9
20190421135006 8 0 0.0 3.2 0.00 0.08 0.08 87 1024.8
20190421134108 8 0 0.0 3.2 0.00 0.08 0.08 86 1024.8
20190421133206 8 0 0.0 1.6 0.00 0.08 0.08 86 1024.7
20190421132306 8 0 0.0 4.8 0.00 0.08 0.08 87 1024.7
20190421131406 8 0 0.0 6.4 0.00 0.08 0.08 87 1024.7
20190421130506 8 0 0.0 1.6 0.00 0.08 0.08 87 1024.6
20190421125606 8 0 0.0 1.6 0.00 0.08 0.08 86 1024.8
20190421124707 8 0 0.0 3.2 0.00 0.08 0.08 86 1024.9
20190421123807 8 0 0.0 3.2 0.00 0.08 0.08 86 1024.7
20190421122906 8 0 0.0 8.0 0.00 0.08 0.08 87 1024.8
20190421122007 8 0 0.0 3.2 0.00 0.08 0.08 87 1024.9
20190421121106 8 0 0.0 3.2 0.00 0.08 0.08 87 1024.9
20190421120206 8 0 0.0 0.0 0.00 0.08 0.08 87 1025.0
20190421115306 9 0 0.0 1.6 0.00 0.08 0.08 86 1024.8
20190421114406 9 0 0.0 4.8 0.00 0.08 0.08 86 1024.7
20190421113507 9 0 0.0 1.6 0.00 0.08 0.08 86 1024.7
20190421112607 9 0 0.0 1.6 0.00 0.08 0.08 84 1024.7
20190421111706 9 0 0.0 1.6 0.00 0.08 0.08 84 1024.8
20190421110807 10 0 0.0 1.6 0.00 0.08 0.08 83 1024.6
20190421105906 10 0 0.0 3.2 0.00 0.08 0.08 83 1024.6
20190421105006 10 0 0.0 4.8 0.00 0.08 0.08 82 1024.4
20190421104106 10 0 0.0 3.2 0.00 0.08 0.08 81 1024.6
20190421103206 10 0 0.0 3.2 0.00 0.08 0.08 80 1024.4
20190421102307 10 0 0.0 6.4 0.00 0.08 0.08 79 1024.4
20190421101407 11 0 0.0 6.4 0.00 0.08 0.08 78 1024.4
20190421100507 11 0 0.0 6.4 0.00 0.08 0.08 77 1024.5
20190421095607 11 0 0.0 3.2 0.00 0.08 0.08 78 1024.4
20190421094707 11 0 0.0 4.8 0.00 0.08 0.08 79 1024.3
20190421093807 11 0 0.0 0.0 0.00 0.08 0.08 79 1024.2
20190421092907 11 0 0.0 1.6 0.00 0.08 0.08 78 1024.0
20190421092007 11 0 0.0 1.6 0.00 0.08 0.08 77 1023.7
20190421091106 11 0 0.0 0.0 0.00 0.08 0.08 75 1023.6
20190421090208 11 0 0.0 1.6 0.00 0.08 0.08 74 1023.4
20190421085306 12 242 1.6 3.2 0.00 0.08 0.08 72 1023.3
20190421084407 12 233 1.6 6.4 0.00 0.08 0.08 71 1023.3
20190421083506 12 0 0.0 4.8 0.00 0.08 0.08 69 1023.2
20190421082607 12 226 1.6 3.2 0.00 0.08 0.08 66 1023.2
20190421081706 13 231 0.0 4.8 0.00 0.08 0.08 64 1022.9
20190421080807 13 0 0.0 3.2 0.00 0.08 0.08 62 1022.7
20190421075907 13 0 0.0 1.6 0.00 0.08 0.08 61 1022.6
20190421075007 13 0 0.0 3.2 0.00 0.08 0.08 59 1022.5
20190421074106 13 0 0.0 1.6 0.00 0.08 0.08 60 1022.4
20190421073207 13 0 0.0 1.6 0.00 0.08 0.08 61 1022.3
20190421072307 14 0 0.0 1.6 0.00 0.08 0.08 62 1022.2
20190421071407 14 172 0.0 1.6 0.00 0.08 0.08 60 1022.2
20190421070507 13 217 1.6 6.4 0.00 0.08 0.08 60 1022.1
20190421065607 14 220 3.2 6.4 0.00 0.08 0.08 60 1021.8
20190421064707 14 230 3.2 9.7 0.00 0.08 0.08 59 1021.7
20190421063807 14 230 3.2 9.7 0.00 0.08 0.08 59 1021.7
20190421062907 14 204 1.6 9.7 0.00 0.08 0.08 62 1021.7
20190421062007 15 208 1.6 9.7 0.00 0.08 0.08 63 1021.3
20190421061107 14 211 1.6 6.4 0.00 0.08 0.08 62 1021.4
20190421060207 14 219 1.6 6.4 0.00 0.08 0.08 59 1021.5
20190421055307 15 223 1.6 6.4 0.00 0.08 0.08 61 1021.4
20190421054407 15 206 1.6 9.7 0.00 0.08 0.08 62 1021.5
20190421053507 15 213 3.2 6.4 0.00 0.08 0.08 63 1021.5
20190421052607 14 222 3.2 12.9 0.00 0.08 0.08 63 1021.7
20190421051707 15 219 3.2 12.9 0.00 0.08 0.08 63 1021.5
20190421050807 15 220 3.2 8.0 0.00 0.08 0.08 61 1021.3
20190421045907 15 208 4.8 14.5 0.00 0.08 0.08 61 1021.2
20190421045007 15 210 3.2 12.9 0.00 0.08 0.08 60 1021.1
20190421044107 16 212 1.6 8.0 0.00 0.08 0.08 58 1021.2
20190421043207 16 123 1.6 8.0 0.00 0.08 0.08 58 1021.2
20190421042307 15 221 3.2 17.7 0.00 0.08 0.08 60 1021.1
20190421041407 15 228 1.6 6.4 0.00 0.08 0.08 58 1021.1
20190421040507 15 225 1.6 8.0 0.00 0.08 0.08 60 1021.1
20190421035607 15 223 3.2 12.9 0.00 0.08 0.08 63 1020.8
20190421034707 15 216 1.6 12.9 0.00 0.08 0.08 63 1020.8
20190421033807 16 179 1.6 8.0 0.00 0.08 0.08 61 1021.0
20190421032907 16 188 1.6 16.1 0.00 0.08 0.08 63 1021.1
20190421032007 16 181 3.2 11.3 0.00 0.08 0.08 65 1021.4
20190421031107 15 202 3.2 12.9 0.00 0.08 0.08 69 1021.1
20190421030207 15 215 1.6 12.9 0.00 0.08 0.08 73 1021.5
20190421025307 14 218 0.0 6.4 0.00 0.08 0.08 74 1021.4
20190421024407 14 0 0.0 3.2 0.00 0.08 0.08 74 1021.6
20190421023507 14 203 0.0 4.8 0.00 0.08 0.08 75 1021.4
20190421022607 14 214 1.6 4.8 0.00 0.08 0.08 75 1021.1
20190421021707 14 204 1.6 8.0 0.00 0.08 0.08 74 1021.6
20190421020807 14 214 1.6 8.0 0.00 0.08 0.08 74 1021.8
20190421015907 14 205 1.6 11.3 0.00 0.08 0.08 71 1021.9
20190421015007 14 194 1.6 9.7 0.00 0.08 0.08 75 1021.5
20190421014107 13 229 1.6 8.0 0.00 0.08 0.08 83 1021.5
20190421013207 13 231 1.6 9.7 0.00 0.08 0.08 83 1021.4
20190421012307 13 201 1.6 9.7 0.00 0.08 0.08 84 1021.5
20190421011407 12 217 3.2 9.7 0.00 0.08 0.08 84 1021.4
20190421010507 12 229 1.6 11.3 0.00 0.08 0.08 83 1021.5
20190421005607 13 224 1.6 8.0 0.00 0.08 0.08 84 1021.5
20190421004707 12 255 3.2 12.9 0.00 0.08 0.08 84 1021.3
20190421003807 13 219 1.6 12.9 0.00 0.08 0.08 84 1021.3
20190421002907 12 203 3.2 12.9 0.00 0.08 0.08 86 1021.4
20190421002007 12 225 1.6 11.3 0.00 0.08 0.08 87 1021.4
20190421001107 12 242 1.6 11.3 0.00 0.08 0.08 88 1021.2
20190421000207 12 257 0.0 11.3 0.00 0.08 0.08 90 1020.5
20190420235307 12 162 1.6 3.2 0.00 0.08 0.08 90 1021.0
20190420234407 11 204 1.6 6.4 0.00 0.08 0.08 90 1020.9
20190420233507 11 233 0.0 9.7 0.00 0.08 0.08 90 1020.9
20190420232607 11 0 0.0 6.4 0.05 0.08 0.08 90 1020.4
20190420231707 11 0 0.0 4.8 0.08 0.08 0.08 89 1020.9
20190420230807 11 0 0.0 8.0 0.08 0.08 0.08 89 1020.5
20190420225907 11 229 0.0 6.4 0.08 0.08 0.08 89 1020.6
20190420225007 11 225 1.6 8.0 0.08 0.08 0.08 89 1020.5
20190420224107 11 232 3.2 16.1 0.08 0.08 0.08 88 1019.9
20190420223208 11 224 3.2 16.1 0.08 0.08 0.08 89 1019.4
20190420222307 11 216 1.6 11.3 0.00 0.00 0.00 88 1019.7
20190420221407 11 220 3.2 14.5 0.00 0.00 0.00 87 1020.1
20190420220507 11 224 1.6 11.3 0.00 0.00 0.00 87 1020.4
20190420215608 11 225 1.6 8.0 0.00 0.00 0.00 86 1020.0
20190420214707 11 223 1.6 8.0 0.00 0.00 0.00 85 1019.7
20190420213807 11 225 1.6 8.0 0.00 0.00 0.00 85 1019.1
20190420212907 11 229 1.6 6.4 0.00 0.00 0.00 86 1018.8
20190420212007 11 250 1.6 9.7 0.00 0.00 0.00 87 1018.6
20190420211107 11 235 1.6 9.7 0.00 0.00 0.00 87 1018.8
20190420210207 11 225 1.6 9.7 0.00 0.00 0.00 88 1019.0
20190420205307 12 26 1.6 9.7 0.00 0.00 0.00 88 1018.9
20190420204408 12 251 1.6 12.9 0.00 0.00 0.00 88 1018.8
20190420203507 12 189 1.6 9.7 0.00 0.00 0.00 88 1018.8
20190420202607 12 237 3.2 11.3 0.00 0.00 0.00 89 1018.9
20190420201707 12 209 1.6 24.1 0.00 0.00 0.00 88 1018.5
20190420200808 13 227 1.6 9.7 0.00 0.00 0.00 88 1018.3
20190420195907 13 242 1.6 6.4 0.00 0.00 0.00 88 1018.0
20190420195008 13 334 1.6 11.3 0.00 0.00 0.00 88 1017.7
20190420194107 13 91 1.6 9.7 0.00 0.00 0.00 87 1017.8
20190420193208 13 207 1.6 14.5 0.00 0.00 0.00 87 1017.9
20190420192308 13 144 3.2 9.7 0.00 0.00 0.00 87 1018.1
20190420191408 13 259 3.2 16.1 0.00 0.00 0.00 86 1018.1
20190420190507 13 197 4.8 14.5 0.00 0.00 0.00 85 1018.2
20190420185607 13 282 3.2 16.1 0.00 0.00 0.00 85 1018.2